Weather History for Artesia, NM

Change the Weather History Date:

Wednesday, September 19, 2012

  Actual Average Record
Temperature  
Mean Temperature 73 °F -  
Max Temperature 91 °F 84 °F 98 °F (1952)
Min Temperature 55 °F 54 °F 38 °F (1968)
Cooling Degree Days 8    
Growing Degree Days 23 (Base 50)    
Moisture  
Dew Point 40 °F    
Average Humidity 36    
Maximum Humidity 72    
Minimum Humidity 10    
Precipitation  
Precipitation 0.00 in - - ()
Sea Level Pressure  
Sea Level Pressure 30.10 in    
Wind  
Wind Speed 9 mph (SSW)    
Max Wind Speed 14 mph    
Max Gust Speed 28 mph    
Visibility 10 miles    
Events      
Averages and records for this station are not official NWS values.
T = Trace of Precipitation, MM = Missing Value Source: NWS Daily Summary

Daily Weather History Graph

Daily Weather History Graph

Search for Another Location

Airport:

Trip Planner

Search our weather history database for the weather conditions in past years. The results will help you decide how hot, cold, wet, or windy it might be!

Date:

Astronomy

Sep. 19, 2012 Rise Set
Actual Time 6:44 AM MDT 6:57 PM MDT
Civil Twilight 6:19 AM MDT 7:22 PM MDT
Nautical Twilight 5:50 AM MDT 7:51 PM MDT
Astronomical Twilight 5:21 AM MDT 8:20 PM MDT
Moon 10:40 AM MDT (9/19) 9:26 PM MDT (9/19)
Length of Visible Light 13h 02m
Length of Day
12h 13m
Waxing Crescent, 17% of the Moon is Illuminated
Sep 19
Waxing Crescent
Sep 22
First Quarter
Sep 29
Full
Oct 8
Last Quarter
Oct 15
New

Hourly Weather History & Observations

Time (MDT) Temp. Dew Point Humidity Pressure Visibility Wind Dir Wind Speed Gust Speed Precip Events Conditions
12:15 AM 62.6 °F 44.6 °F 52% 30.15 in 10.0 mi SW 9.2 mph - N/A   Clear
12:35 AM 62.6 °F 46.4 °F 55% 30.14 in 10.0 mi SW 9.2 mph - N/A   Clear
12:55 AM 62.6 °F 46.4 °F 55% 30.14 in 10.0 mi SW 10.4 mph - N/A   Clear
1:15 AM 62.6 °F 46.4 °F 55% 30.14 in 10.0 mi SW 9.2 mph - N/A   Clear
1:35 AM 60.8 °F 46.4 °F 59% 30.14 in 10.0 mi SW 8.1 mph - N/A   Clear
1:55 AM 60.8 °F 46.4 °F 59% 30.14 in 10.0 mi SW 8.1 mph - N/A   Clear
2:15 AM 59.0 °F 44.6 °F 59% 30.14 in 10.0 mi WSW 6.9 mph - N/A   Clear
2:35 AM 59.0 °F 44.6 °F 59% 30.14 in 10.0 mi WSW 5.8 mph - N/A   Clear
2:55 AM 59.0 °F 44.6 °F 59% 30.13 in 10.0 mi West 6.9 mph - N/A   Clear
3:15 AM 59.0 °F 44.6 °F 59% 30.12 in 10.0 mi WSW 5.8 mph - N/A   Clear
3:55 AM 55.4 °F 44.6 °F 67% 30.12 in 10.0 mi SSW 8.1 mph - N/A   Clear
4:15 AM 57.2 °F 44.6 °F 63% 30.12 in 10.0 mi WSW 8.1 mph - N/A   Clear
4:35 AM 57.2 °F 44.6 °F 63% 30.12 in 10.0 mi SW 6.9 mph - N/A   Clear
4:55 AM 57.2 °F 44.6 °F 63% 30.12 in 10.0 mi WSW 6.9 mph - N/A   Clear
5:15 AM 57.2 °F 44.6 °F 63% 30.12 in 10.0 mi SW 5.8 mph - N/A   Clear
5:35 AM 55.4 °F 44.6 °F 67% 30.13 in 10.0 mi SW 6.9 mph - N/A   Clear
5:55 AM 57.2 °F 46.4 °F 67% 30.12 in 10.0 mi WSW 4.6 mph - N/A   Clear
6:15 AM 55.4 °F 46.4 °F 72% 30.13 in 10.0 mi WSW 4.6 mph - N/A   Clear
7:15 AM 55.4 °F 46.4 °F 72% 30.15 in 10.0 mi South 4.6 mph - N/A   Clear
7:35 AM 59.0 °F 48.2 °F 67% 30.15 in 10.0 mi South 3.5 mph - N/A   Clear
7:55 AM 62.6 °F 48.2 °F 59% 30.16 in 10.0 mi South 5.8 mph - N/A   Clear
8:15 AM 62.6 °F 50.0 °F 63% 30.16 in 10.0 mi South 6.9 mph - N/A   Clear
8:35 AM 64.4 °F 50.0 °F 59% 30.16 in 10.0 mi South 5.8 mph - N/A   Clear
8:55 AM 66.2 °F 50.0 °F 56% 30.16 in 10.0 mi South 6.9 mph - N/A   Clear
9:35 AM 71.6 °F 50.0 °F 46% 30.16 in 10.0 mi SSE 8.1 mph - N/A   Clear
9:55 AM 73.4 °F 50.0 °F 44% 30.16 in 10.0 mi SE 8.1 mph - N/A   Clear
10:15 AM 75.2 °F 50.0 °F 41% 30.16 in 10.0 mi SSE 6.9 mph - N/A   Clear
10:35 AM 77.0 °F 50.0 °F 39% 30.15 in 10.0 mi South 8.1 mph - N/A   Clear
10:55 AM 78.8 °F 48.2 °F 34% 30.15 in 10.0 mi SE 6.9 mph - N/A   Clear
11:15 AM 80.6 °F 46.4 °F 30% 30.14 in 10.0 mi South 8.1 mph - N/A   Clear
11:35 AM 82.4 °F 46.4 °F 28% 30.13 in 10.0 mi SSE 5.8 mph - N/A   Clear
11:55 AM 84.2 °F 46.4 °F 27% 30.12 in 10.0 mi SSW 8.1 mph - N/A   Clear
12:15 PM 86.0 °F 44.6 °F 23% 30.12 in 10.0 mi SE 8.1 mph - N/A   Clear
12:35 PM 86.0 °F 42.8 °F 22% 30.11 in 10.0 mi SSE 10.4 mph - N/A   Clear
12:55 PM 87.8 °F 41.0 °F 19% 30.10 in 10.0 mi South 12.7 mph 17.3 mph N/A   Clear
1:15 PM 89.6 °F 39.2 °F 17% 30.09 in 10.0 mi South 9.2 mph - N/A   Clear
1:35 PM 89.6 °F 33.8 °F 14% 30.08 in 10.0 mi ESE 8.1 mph 16.1 mph N/A   Clear
2:15 PM 91.4 °F 37.4 °F 15% 30.06 in 10.0 mi SW 9.2 mph 19.6 mph N/A   Clear
2:35 PM 91.4 °F 35.6 °F 14% 30.06 in 10.0 mi SSE 12.7 mph 20.7 mph N/A   Clear
2:55 PM 91.4 °F 35.6 °F 14% 30.05 in 10.0 mi SE 10.4 mph 18.4 mph N/A   Clear
3:15 PM 91.4 °F 35.6 °F 14% 30.04 in 9.0 mi SSE 12.7 mph 19.6 mph N/A   Clear
3:35 PM 91.4 °F 30.2 °F 11% 30.03 in 8.0 mi South 5.8 mph - N/A   Clear
3:55 PM 91.4 °F 28.4 °F 10% 30.03 in 10.0 mi SSW 13.8 mph - N/A   Clear
4:15 PM 91.4 °F 26.6 °F 10% 30.03 in 10.0 mi SSW 12.7 mph 27.6 mph N/A   Clear
4:35 PM 91.4 °F 26.6 °F 10% 30.03 in 10.0 mi SW 9.2 mph - N/A   Clear
4:55 PM 91.4 °F 26.6 °F 10% 30.03 in 10.0 mi WSW 12.7 mph 23.0 mph N/A   Clear
5:15 PM 91.4 °F 26.6 °F 10% 30.03 in 10.0 mi South 12.7 mph 16.1 mph N/A   Clear
5:35 PM 89.6 °F 26.6 °F 10% 30.03 in 10.0 mi South 9.2 mph - N/A   Clear
5:55 PM 89.6 °F 26.6 °F 10% 30.03 in 10.0 mi South 11.5 mph - N/A   Clear
6:15 PM 89.6 °F 32.0 °F 13% 30.03 in 10.0 mi South 9.2 mph - N/A   Clear
6:35 PM 86.0 °F 33.8 °F 15% 30.04 in 10.0 mi SSE 13.8 mph - N/A   Clear
6:55 PM 84.2 °F 32.0 °F 15% 30.04 in 10.0 mi SSE 13.8 mph - N/A   Clear
7:15 PM 82.4 °F 32.0 °F 16% 30.04 in 10.0 mi SSE 11.5 mph - N/A   Clear
7:35 PM 80.6 °F 32.0 °F 17% 30.04 in 10.0 mi SSE 11.5 mph - N/A   Clear
7:55 PM 78.8 °F 33.8 °F 20% 30.05 in 10.0 mi SSE 11.5 mph - N/A   Clear
8:15 PM 78.8 °F 35.6 °F 21% 30.06 in 10.0 mi South 12.7 mph - N/A   Clear
8:35 PM 77.0 °F 35.6 °F 22% 30.06 in 10.0 mi South 11.5 mph - N/A   Clear
8:55 PM 75.2 °F 35.6 °F 24% 30.07 in 10.0 mi South 10.4 mph - N/A   Clear
9:15 PM 75.2 °F 37.4 °F 25% 30.08 in 10.0 mi South 11.5 mph - N/A   Clear
9:35 PM 75.2 °F 37.4 °F 25% 30.08 in 10.0 mi South 12.7 mph - N/A   Clear
9:55 PM 73.4 °F 35.6 °F 25% 30.09 in 10.0 mi South 9.2 mph - N/A   Clear
10:35 PM 71.6 °F 35.6 °F 27% 30.09 in 10.0 mi South 9.2 mph - N/A   Clear
10:55 PM 68.0 °F 35.6 °F 30% 30.09 in 10.0 mi SSW 10.4 mph - N/A   Clear
11:15 PM 68.0 °F 35.6 °F 30% 30.09 in 10.0 mi SW 9.2 mph - N/A   Clear
11:35 PM 66.2 °F 35.6 °F 32% 30.08 in 10.0 mi SW 9.2 mph - N/A   Clear
11:55 PM 66.2 °F 37.4 °F 35% 30.08 in 10.0 mi SW 10.4 mph - N/A   Clear